Regional Weather Roundup
Issued by NWS

Home | Current Version | Previous Version | Graphics & Text | Print | Product List | Glossary Off
Versions: 1 2 3 4 5 6 7 8 9 10 11 12 13 14 15 16 17 18 19 20 21 22 23 24 25 26 27 28 29 30 31 32 33 34 35 36 37 38 39 40 41 42 43 44 45 46 47 48 49 50

000
ASUS43 KMKX 272111
RWRWI

WISCONSIN REGIONAL WEATHER ROUNDUP
NATIONAL WEATHER SERVICE MILWAUKEE/SULLIVAN WI
400 PM CDT TUE SEP 27 2016

NOTE: "FAIR" INDICATES FEW OR NO CLOUDS BELOW 12,000 FEET WITH NO
SIGNIFICANT WEATHER AND/OR OBSTRUCTIONS TO VISIBILITY.

WIZ001-002-006>008-014>016-023>028-272200-
NORTHWEST WISCONSIN

CITY           SKY/WX    TMP DP  RH WIND       PRES   REMARKS
SUPERIOR ARPT  LGT RAIN  49  47  92 NW9       29.75R
ASHLAND        CLOUDY    51  46  83 W9        29.70R
HAYWARD        LGT RAIN  49  46  90 VRB5      29.73R
SIREN          RAIN      49  47  92 NW10G17   29.77R
CUMBERLAND     RAIN      46  45  93 NW15      29.75S
RICE LAKE      DRIZZLE   50  47  88 W9G16     29.76S
CHETEK         NOT AVBL
LADYSMITH      LGT RAIN  50  47  90 NW13      29.74R
EAU CLAIRE     LGT RAIN  50  47  89 W18       29.76R
MENOMONIE      LGT RAIN  50  50 100 W8        29.78R
NEW RICHMOND   LGT RAIN  49  46  89 NW7       29.79S
OSCEOLA        LGT RAIN  50  50 100 NW7       29.81S
$$

WIZ003>005-009-010-017-018-272200-
NORTH CENTRAL WISCONSIN

CITY           SKY/WX    TMP DP  RH WIND       PRES   REMARKS
MANITOWISH WTR NOT AVBL
ARBOR VITAE    CLOUDY    51  49  93 NW8       29.67R
WOODRUFF       CLOUDY    51  49  93 NW8       29.67R
RHINELANDER    CLOUDY    50  48  93 W10       29.66R
EAGLE RIVER    DRIZZLE   48  47  97 CALM      29.65R
LAND O LAKES   CLOUDY    48  46  90 NW7       29.66R
PHILLIPS       DRIZZLE   48  47  96 NW5       29.69R
TOMAHAWK       LGT RAIN  48  45  90 W7        29.69R
MEDFORD        LGT RAIN  48  48 100 W10G17    29.70S
MERRILL        LGT RAIN  50  48  93 W8        29.69S
$$

WIZ029-030-035-036-043>047-272200-
CENTRAL WISCONSIN

CITY           SKY/WX    TMP DP  RH WIND       PRES   REMARKS
WAUSAU         RAIN      49  47  93 W13       29.69R FOG
MOSINEE        LGT RAIN  48  48 100 W12G18    29.71S
MARSHFIELD     LGT RAIN  51  46  83 W13G22    29.72R
STEVENS POINT  RAIN      49  47  94 W6        29.72R
WAUPACA        CLOUDY    55  47  74 W13       29.71S
WAUTOMA        CLOUDY    55  45  68 W9        29.73S
WISC RAPIDS    LGT RAIN  52  48  86 W12       29.74R
CAMP DOUGLAS   CLOUDY    52  46  82 NW10      29.75R
$$

WIZ011>013-019>022-031-037>040-048>050-272200-
NORTHEAST WISCONSIN

CITY           SKY/WX    TMP DP  RH WIND       PRES   REMARKS
ANTIGO         CLOUDY    49  47  93 NW12G21   29.68R
SHAWANO        DRIZZLE   54  49  84 W8        29.69R
OCONTO         NOT AVBL
STURGEON BAY   LGT RAIN  53  50  89 W13       29.66R
GREEN BAY      CLOUDY    53  51  93 W9        29.68R
MANITOWOC      LGT RAIN  55  47  74 MISG      29.69S
APPLETON       CLOUDY    54  43  66 W14G23    29.68S
CLINTONVILLE   NOT AVBL
OSHKOSH        CLOUDY    55  44  66 W12G21    29.71R
$$

WIZ032>034-041-042-053>061-272200-
SOUTHWEST WISCONSIN

CITY           SKY/WX    TMP DP  RH WIND       PRES   REMARKS
LA CROSSE      CLOUDY    62  45  53 NW14      29.74S
SPARTA         RAIN      53  48  81 N10G16    29.76R
VIROQUA        CLOUDY    61  39  45 W12       29.75S
BOSCOBEL       CLOUDY    67  35  30 NW15G25   29.74F
PRAIRIE DU CHI MOSUNNY   67  29  24 W16G23    29.74F
PLATTEVILLE    SUNNY     67  36  31 W22G31    29.75S
$$

WIZ056-057-062-063-064-067-068-272200-
SOUTH CENTRAL WISCONSIN

CITY           SKY/WX    TMP DP  RH WIND       PRES   REMARKS
REEDSBURG      NOT AVBL
BARABOO/DELLS  CLOUDY    55  45  68 NW3       29.74R
LONE ROCK      PTSUNNY   66  40  38 W15G24    29.74S
MINERAL POINT  MOSUNNY   66  32  28 W16G25    29.74F
MADISON        LGT RAIN  59  43  55 W6        29.73S
MIDDLETON      CLOUDY    64  44  47 W10G18    29.73S
WATERTOWN      CLOUDY    57  45  63 NW7       29.73S
MONROE         MOSUNNY   64  34  32 W14G25    29.74S
JANESVILLE     PTSUNNY   66  37  34 W17G23    29.72F
$$

WIZ051-052-058>065-066-070>072-272200-
SOUTHEAST WISCONSIN

CITY           SKY/WX    TMP DP  RH WIND       PRES   REMARKS
MILWAUKEE      CLOUDY    62  42  47 NW17G23   29.73S
WAUKESHA       PTSUNNY   57  43  58 W9G18     29.75R
MILWAUKEE/TIMM CLOUDY    57  39  51 W16G25    29.74R
RACINE         CLOUDY    62  43  49 W9        29.74S
BURLINGTON     CLOUDY    62  40  43 W12G18    29.73S
KENOSHA        CLOUDY    65  42  43 W15G23    29.73S
FOND DU LAC    LGT RAIN  54  45  71 W12       29.72R
SHEBOYGAN      CLOUDY    57  44  62 W14       29.71R
WEST BEND      CLOUDY    55  43  62 W13       29.73R
JUNEAU         CLOUDY    56  43  61 W8        29.74S
$$

LSZ147-162-272200-
LAKE SUPERIOR

STATION/POSITION TIME  TEMP    WIND        PRES    WAVE
                       AIR SEA DIR/SP/G            HT/PER
                 (UTC) (F)     (DEG/KT/KT) (MB)    (FT/S)
W MID LAKE BUOY  2050   51 49  300/  6/  8 1003.7R   3/ 4
DEVILS ISLAND    2000   52     290/ 13/ 15 1004.7R
SAXON HARBOR     2040   53     290/ 11/ 15 1005.4R
$$

LMZ867-665-643>646-272200-
LAKE MICHIGAN

STATION/POSITION TIME  TEMP    WIND        PRES    WAVE
                       AIR SEA DIR/SP/G            HT/PER
                 (UTC) (F)     (DEG/KT/KT) (MB)    (FT/S)
CHAMBERS ISLAND  2000   53     230/  5/ 14 1003.0S
N MID LAKE BUOY  2050   54 66  260/ 17/ 21 1002.4R   4/ 6
NORTHPORT PIER   1900   52     290/  8/ 16 1003.0R
SISTER BAY       2038   55     280/ 16/ 19   N/A
ALGOMA LAKESHORE 2017          330/  7/ 13   N/A
KEWAUNEE LAKESHO 2000   55     280/  5/  9 1004.1R
SHEBOYGAN LAKESH 2100   57     260/ 15/ 19 1005.7R
PORT WASHINGTON  2000   61     280/  9/ 16 1007.1R
ATWATER BUOY     2000   58 53  260/ 16/ 17 1006.8R
MILWAUKEE LAKESH 2010   60     270/ 16/ 20   N/A
S MID LAKE BUOY  2050   61 70  310/ 14/ 17 1006.2R   4/ 5
KENOSHA   LAKESH 2100   65     290/ 15/ 21 1006.1F
$$

TC  - TEMPERATURE IN CELSIUS
VSB - VISIBILITY IN STATUTE MILES
WCI - WIND CHILL INDEX
HX  - HEAT INDEX





USA.gov is the U.S. government's official web portal to all federal, state and local government web resources and services.